Satellite: AO-27
Catalog number: 22825
Epoch time:      06200.51190372
Element set:    0454
Inclination:      098.2846 deg
RA of node:       180.7581 deg
Eccentricity:    0.0008615
Arg of perigee:   160.0872 deg
Mean anomaly:     200.0642 deg
Mean motion:   14.29177769 rev/day
Decay rate:       -6.2e-07 rev/day^2
Epoch rev:           66797
Checksum:              310

Satellite: IO-26
Catalog number: 22826
Epoch time:      06200.54620009
Element set:     142
Inclination:      098.2785 deg
RA of node:       181.9860 deg
Eccentricity:    0.0009118
Arg of perigee:   157.6870 deg
Mean anomaly:     202.4708 deg
Mean motion:   14.29422085 rev/day
Decay rate:       -5.0e-08 rev/day^2
Epoch rev:           66805
Checksum:              297

Satellite: PO-28
Catalog number: 22829
Epoch time:      06200.52435632
Element set:    0428
Inclination:      098.2680 deg
RA of node:       183.1661 deg
Eccentricity:    0.0010384
Arg of perigee:   134.2003 deg
Mean anomaly:     226.0021 deg
Mean motion:   14.30117239 rev/day
Decay rate:       1.04e-06 rev/day^2
Epoch rev:           66826
Checksum:              260

Satellite: TO-31
Catalog number: 25396
Epoch time:      06200.63198897
Element set:     578
Inclination:      098.4761 deg
RA of node:       259.7973 deg
Eccentricity:    0.0003504
Arg of perigee:   096.5435 deg
Mean anomaly:     263.6169 deg
Mean motion:   14.23709239 rev/day
Decay rate:        5.1e-07 rev/day^2
Epoch rev:           41696
Checksum:              345

Satellite: GO-32
Catalog number: 25397
Epoch time:      06200.67213509
Element set:    0065
Inclination:      098.4650 deg
RA of node:       256.5132 deg
Eccentricity:    0.0002005
Arg of perigee:   106.0151 deg
Mean anomaly:     254.1243 deg
Mean motion:   14.23107721 rev/day
Decay rate:       -7.8e-07 rev/day^2
Epoch rev:           41686
Checksum:              261

Satellite: UO-36
Catalog number: 25693
Epoch time:      06201.38129768
Element set:      94
Inclination:      064.5568 deg
RA of node:       140.7559 deg
Eccentricity:    0.0022018
Arg of perigee:   327.6686 deg
Mean anomaly:     032.3069 deg
Mean motion:   14.78606198 rev/day
Decay rate:       -4.3e-07 rev/day^2
Epoch rev:           39069
Checksum:              335

Satellite: MO-46
Catalog number: 26548
Epoch time:      06200.54605556
Element set:    0548
Inclination:      064.5562 deg
RA of node:       131.6499 deg
Eccentricity:    0.0047009
Arg of perigee:   242.8586 deg
Mean anomaly:     116.7720 deg
Mean motion:   14.82995188 rev/day
Decay rate:        1.8e-07 rev/day^2
Epoch rev:           31421
Checksum:              322

Satellite: NO-44
Catalog number: 26931
Epoch time:      06200.74504282
Element set:    0356
Inclination:      067.0528 deg
RA of node:       283.8180 deg
Eccentricity:    0.0006546
Arg of perigee:   252.3914 deg
Mean anomaly:     107.6484 deg
Mean motion:   14.29446066 rev/day
Decay rate:        8.0e-07 rev/day^2
Epoch rev:           25058
Checksum:              299

Satellite: SO-50
Catalog number: 27607
Epoch time:      06200.59063987
Element set:    0075
Inclination:      064.5584 deg
RA of node:       014.7250 deg
Eccentricity:    0.0039991
Arg of perigee:   135.3750 deg
Mean anomaly:     225.0574 deg
Mean motion:   14.71154996 rev/day
Decay rate:      -1.92e-06 rev/day^2
Epoch rev:           19219
Checksum:              317

Satellite: CO-57
Catalog number: 27848
Epoch time:      06200.54404639
Element set:    0774
Inclination:      098.7170 deg
RA of node:       207.6945 deg
Eccentricity:    0.0009560
Arg of perigee:   339.8939 deg
Mean anomaly:     020.1859 deg
Mean motion:   14.20274217 rev/day
Decay rate:        2.6e-07 rev/day^2
Epoch rev:           15823
Checksum:              324

Satellite: AO-51
Catalog number: 28375
Epoch time:      06200.86195561
Element set:    0583
Inclination:      098.1616 deg
RA of node:       251.4048 deg
Eccentricity:    0.0084753
Arg of perigee:   108.1702 deg
Mean anomaly:     252.8730 deg
Mean motion:   14.40526882 rev/day
Decay rate:        2.0e-07 rev/day^2
Epoch rev:           10787
Checksum:              300

Satellite: XO-53
Catalog number: 28894
Epoch time:      06200.74033622
Element set:    0604
Inclination:      098.1633 deg
RA of node:       098.5399 deg
Eccentricity:    0.0018741
Arg of perigee:   072.1961 deg
Mean anomaly:     288.1279 deg
Mean motion:   14.59491005 rev/day
Decay rate:        5.8e-07 rev/day^2
Epoch rev:           03872
Checksum:              323

Satellite: CO-56
Catalog number: 28941
Epoch time:      06200.89628176
Element set:    0151
Inclination:      098.1746 deg
RA of node:       222.8081 deg
Eccentricity:    0.0276082
Arg of perigee:   357.1921 deg
Mean anomaly:     002.7695 deg
Mean motion:   15.26065902 rev/day
Decay rate:     1.7257e-04 rev/day^2
Epoch rev:           02253
Checksum:              315

/EX
SB KEPS @ AMSAT  $ORB06201.W
Orbital Elements  06201.WEATHER

HR AMSAT ORBITAL ELEMENTS FOR WEATHER SATELLITES
FROM WA5QGD FORT WORTH,TX July 20, 2006
Send SUBSCRIBE KEPS/UNSUBSCRIBE KEPS to majordomo@amsat.org only
BID: ORB06201.W
TO ALL RADIO AMATEURS BT

Satellite: NOAA-10
Catalog number: 16969
Epoch time:      06201.58321671
Element set:     281
Inclination:      098.7592 deg
RA of node:       213.2851 deg
Eccentricity:    0.0013280
Arg of perigee:   055.7726 deg
Mean anomaly:     304.5199 deg
Mean motion:   14.27299260 rev/day
Decay rate:        2.2e-07 rev/day^2
Epoch rev:            3206
Checksum:              292

